Regional Weather Roundup
Issued by NWS Sioux Falls, SD

Home | Current Version | Previous Version | Graphics & Text | Print | Product List | Glossary On
Versions: 1 2 3 4 5 6 7 8 9 10 11 12 13 14 15 16 17 18 19 20 21 22 23 24 25 26 27 28 29 30 31 32 33 34 35 36 37 38 39 40 41 42 43 44 45 46 47 48 49 50
000
ASUS43 KFSD 010302
RWRFSD

WEATHER ROUNDUP FOR SE SOUTH DAKOTA/SW MINNESOTA/NW IOWA
NATIONAL WEATHER SERVICE SIOUX FALLS SD
1000 PM CDT FRI JUL 31 2015

NOTE: "FAIR" INDICATES FEW OR NO CLOUDS BELOW 12,000 FEET WITH NO
SIGNIFICANT WEATHER AND OR OBSTRUCTIONS TO VISIBILITY.


SDZ038>040-050-052>070-010400-
SOUTHEAST SOUTH DAKOTA

CITY           SKY/WX    TMP DP  RH WIND       PRES   REMARKS
BROOKINGS      CLEAR     70  59  68 S8        30.07R
CHAMBERLAIN    NOT AVBL
HURON          CLEAR     75  56  51 S6        30.03R
MADISON        FAIR      70  61  73 SW7       30.07S
MITCHELL       CLEAR     77  60  55 S3        30.05S
SIOUX FALLS    CLEAR     72  61  68 SW3       30.06S
WINNER         FAIR      75  61  61 SE9       30.08R
YANKTON        CLEAR     73  66  78 NE3       30.05R
$$

MNZ071-072-080-081-089-090-097-098-010400-
SOUTHWEST MINNESOTA

CITY           SKY/WX    TMP DP  RH WIND       PRES   REMARKS
FAIRMONT       CLEAR     66  55  68 CALM      30.05R
JACKSON        CLEAR     70  61  73 SW6       30.07S
LUVERNE        CLEAR     68  63  83 SW5       30.07R
MARSHALL       CLEAR     70  61  73 S5        30.04S
MONTEVIDEO     CLEAR     68  57  68 SW3       30.03R
PIPESTONE      CLEAR     66  63  88 SW3       30.07R
REDWOOD FALLS  CLEAR     71  61  70 CALM      30.01S
TRACY          CLEAR     70  63  78 SW7       30.04S
WINDOM         CLEAR     66  61  82 CALM      30.05S
WORTHINGTON    CLEAR     68  57  68 SW6       30.07S
$$

IAZ001>003-012>014-020>022-031-032-NEZ013-014-SDZ071-010400-
NORTHWEST IOWA

CITY           SKY/WX    TMP DP  RH WIND       PRES   REMARKS
DENISON        PTCLDY    72  68  88 SE5       30.05R
ESTHERVILLE    CLEAR     67  60  78 S6        30.06R
SIOUX CITY     CLEAR     76  67  73 E5        30.05R
SPENCER        CLEAR     69  62  78 S7        30.07R
$$

ABBREVIATIONS USED IN REMARKS
   TC - TEMPERATURE IN CELSIUS
  WCI - WIND CHILL INDEX
   HX - HEAT INDEX
  VSB - VISIBILITY




USA.gov is the U.S. government's official web portal to all federal, state and local government web resources and services.